This demonstration page uses our WeatherBlox Daily Observations layout. Learn more.

Left ArrowRight Arrow

Hourly Observations for August 20, 2022

Temp ( °F °C ) Dew Point ( °F °C ) Humidity (%) Winds ( mph kmh ) Pressure ( in mb ) Visibility ( mi km ) Precip ( " mm )
12:53 am 00:53 Mostly Cloudy with Light Rain 75 23.9 70 21.1 84 84 E 3 6 29.84 1010 10 16 0.03 0.76
1:53 am 01:53 Mostly Clear 75 23.9 69 20.6 82 82 E 3 6 29.83 1010 10 16 0.01 0.13
2:53 am 02:53 Clear 74 23.3 69 20.6 85 85 E 6 9 29.81 1010 10 16 0.00 0.00
3:53 am 03:53 Clear 74 23.3 68 20 82 82 ESE 8 13 29.80 1009 10 16 0.00 0.00
4:53 am 04:53 Clear 74 23.3 67 19.4 79 79 SE 8 13 29.81 1009 10 16 0.00 0.00
5:53 am 05:53 Clear 74 23.3 66 18.9 76 76 SE 10 17 29.81 1010 10 16 0.00 0.00
6:53 am 06:53 Clear 74 23.3 66 18.9 76 76 SE 10 17 29.83 1010 10 16 0.00 0.00
7:53 am 07:53 Partly Cloudy 74 23.3 66 18.9 76 76 SE 13 20 29.87 1011 10 16 0.00 0.00
8:53 am 08:53 Mostly Sunny 75 23.9 66 18.9 74 74 SE 13 20 29.87 1012 10 16 0.00 0.00
9:53 am 09:53 Mostly Cloudy 77 25 67 19.4 71 71 SE 16 26 29.88 1012 10 16 0.00 0.00
10:53 am 10:53 Mostly Cloudy 79 26.1 67 19.4 67 67 SE 15 24 29.88 1012 10 16 0.00 0.00
11:53 am 11:53 Partly Cloudy 80 26.7 66 18.9 62 62 SE 12 19 29.88 1012 10 16 0.00 0.00
12:53 pm 12:53 Partly Cloudy 83 28.3 65 18.3 55 55 S 14 22 29.88 1012 10 16 0.00 0.00
1:53 pm 13:53 Mostly Cloudy 86 30 63 17.2 46 46 S 14 22 29.86 1011 10 16 0.00 0.00
2:53 pm 14:53 Partly Cloudy 88 31.1 65 18.3 47 47 SSE 14 22 29.83 1010 10 16 0.00 0.00
3:53 pm 15:53 Partly Cloudy 88 31.1 63 17.2 43 43 SE 6 9 29.80 1009 10 16 0.00 0.00
4:53 pm 16:53 Partly Cloudy 89 31.7 61 16.1 39 39 SSE 10 17 29.78 1009 10 16 0.00 0.00
5:53 pm 17:53 Mostly Sunny 89 31.7 63 17.2 42 42 SE 16 26 29.77 1008 10 16 0.00 0.00
6:13 pm 18:13 Partly Cloudy with Nearby Thunderstorms 88 31.1 63 17.2 43 43 SE 10 17 29.70 1006 10 16 0.00 0.00
6:35 pm 18:35 Cloudy with Strong Thunderstorms 73 22.8 70 21.1 90 90 SW 22 35 29.83 1010 2 2 0.19 4.83
6:43 pm 18:43 Cloudy with Strong Thunderstorms 72 22.2 70 21.1 93 93 W 16 26 29.85 1011 1 1 0.43 10.92
6:53 pm 18:53 Cloudy with Thunderstorms 72 22.2 69 20.6 91 91 WNW 5 7 29.85 1011 2 3 0.51 12.95
6:57 pm 18:57 Cloudy with Thunderstorms 73 22.8 68 20 84 84 Calm 29.82 1010 3 5 0.01 0.13
7:53 pm 19:53 Cloudy with Nearby Thunderstorms 73 22.8 68 20 84 84 N 7 11 29.83 1010 10 16 0.01 0.13
8:05 pm 20:05 Cloudy 73 22.8 69 20.6 87 87 NNW 7 11 29.83 1010 10 16 0.01 0.13
8:22 pm 20:22 Cloudy with Nearby Thunderstorms 73 22.8 69 20.6 87 87 WNW 17 28 29.85 1011 3 4 0.12 3.05
8:29 pm 20:29 Cloudy with Nearby Thunderstorms 71 21.7 69 20.6 93 93 W 8 13 29.87 1012 1 1 0.36 9.14
8:41 pm 20:41 Cloudy with Thunderstorms 70 21.1 69 20.6 97 97 N 6 9 29.87 1012 3 4 0.47 11.94
8:53 pm 20:53 Cloudy with Thunderstorms 70 21.1 69 20.6 97 97 NNE 6 9 29.87 1012 10 16 0.48 12.19
9:00 pm 21:00 Cloudy with Nearby Thunderstorms 71 21.7 69 20.6 93 93 NNE 5 7 29.86 1011 10 16 0.01 0.13
9:14 pm 21:14 Cloudy 71 21.7 69 20.6 93 93 NE 3 6 29.87 1012 10 16 0.01 0.13
9:53 pm 21:53 Mostly Clear 71 21.7 69 20.6 93 93 NNE 7 11 29.88 1012 10 16 0.01 0.13
10:53 pm 22:53 Partly Cloudy 71 21.7 69 20.6 93 93 ESE 10 17 29.88 1012 10 16 0.00 0.00
11:04 pm 23:04 Mostly Cloudy 71 21.7 70 21.1 96 96 ESE 7 11 29.89 1012 10 16 0.00 0.00
11:16 pm 23:16 Mostly Cloudy 71 21.7 69 20.6 93 93 ESE 7 11 29.90 1013 10 16 0.00 0.00
11:53 pm 23:53 Mostly Clear with Light Rain 71 21.7 69 20.6 93 93 ESE 3 6 29.92 1013 10 16 0.01 0.13

Powered by AerisWeather